Hourly Data Report for September 05, 2017

All times are specified in Local Standard Time (LST). Add 1 hour to adjust for Daylight Saving Time where and when it is observed.

CORAL HARBOUR A
NUNAVUT

64°11'36.000" N
83°21'34.000" W
62.20 m
2301002
71915
YZS

Download Data

Hourly Data (September 2017)
Hourly Data Report for September 5, 2017
Temp Definition
°C
Dew Point Temp Definition
°C
Rel Hum Definition
%
Wind Dir Definition
10's deg

Wind Spd Definition
km/h
Visibility Definition
km
Stn Press Definition
kPa
Hmdx Definition


Wind Chill Definition


Weather Definition


TIME
00:00 Legend Double Dagger 0.3 -1.1 90 2 18 24.1 100.45     LegendNANA
01:00 Legend Double Dagger -0.3 -1.5 92 34 16 24.1 100.45   -5 Clear
02:00 Legend Double Dagger -0.4 -1.5 92 34 19 24.1 100.45   -6 LegendNANA
03:00 Legend Double Dagger 0.0 -1.4 91 34 21 24.1 100.44   -5 LegendNANA
04:00 Legend Double Dagger 0.4 -1.2 89 33 24 24.1 100.44     Clear
05:00 Legend Double Dagger 0.2 -1.4 89 34 26 24.1 100.43     LegendNANA
06:00 Legend Double Dagger 1.0 -0.7 88 34 23 24.1 100.45     LegendNANA
07:00 Legend Double Dagger 1.2 -0.5 89 36 20 24.1 100.46     Mainly Clear
08:00 Legend Double Dagger 1.8 -0.2 87 2 21 24.1 100.48     LegendNANA
09:00 Legend Double Dagger 2.5 -0.1 83 36 18 24.1 100.46     LegendNANA
10:00 Legend Double Dagger 4.2 0.5 77 2 17 24.1 100.42     Mostly Cloudy
11:00 Legend Double Dagger 5.2 0.3 70 3 19 24.1 100.38     LegendNANA
12:00 Legend Double Dagger 6.6 0.7 66 2 9 24.1 100.35     LegendNANA
13:00 Legend Double Dagger 7.0 -0.8 57 3 6 24.1 100.35     Mostly Cloudy
14:00 Legend Double Dagger 7.7 0.4 60 33 7 24.1 100.35     LegendNANA
15:00 Legend Double Dagger 6.9 1.5 68 21 9 24.1 100.35     LegendNANA
16:00 Legend Double Dagger 6.9 1.1 66 3 14 24.1 100.37     Mostly Cloudy
17:00 Legend Double Dagger 6.1 0.3 66 1 18 24.1 100.39     LegendNANA
18:00 Legend Double Dagger 4.5 0.2 73 36 21 24.1 100.42     LegendNANA
19:00 Legend Double Dagger 3.3 -0.2 78 2 19 24.1 100.44     Mostly Cloudy
20:00 Legend Double Dagger 2.5 -0.2 82 36 20 24.1 100.45     LegendNANA
21:00 Legend Double Dagger 1.8 -0.5 84 1 16 24.1 100.44     LegendNANA
22:00 Legend Double Dagger 1.8 -0.4 85 1 12 24.1 100.44     Cloudy
23:00 Legend Double Dagger 2.3 -0.1 84 1 16 24.1 100.46     LegendNANA

Notes on Data Quality.

Legend

  • E = Estimated
  • M = Missing
  • NA = Not Available
  • ‡ = Partner data that is not subject to review by the National Climate Archives
Date modified: